Regional Weather Roundup
Issued by NWS

Home | Current Version | Previous Version | Graphics & Text | Print | Product List | Glossary On
Versions: 1 2 3 4 5 6 7 8 9 10 11 12 13 14 15 16 17 18 19 20 21 22 23 24 25 26 27 28 29 30 31 32 33 34 35 36 37 38 39 40 41 42 43 44 45 46 47 48 49 50
000
ASUS44 KMEG 212000
RWRTN
TENNESSEE HOURLY STATE WEATHER ROUNDUP
NATIONAL WEATHER SERVICE MEMPHIS TN
300 PM CDT TUE OCT 21 2014

TNZ002-004-019-021-049-052-054-088>092-212100-
WEST TENNESSEE

CITY           SKY/WX    TMP DP  RH WIND       PRES   REMARKS
MEMPHIS INTL   SUNNY     76  45  33 N9        30.05F
NWS MEMPHIS      N/A     76 N/A N/A MISG        N/A
JACKSON        SUNNY     75  46  35 VRB6      30.05F
DYERSBURG      SUNNY     73  43  33 NW9       30.07S
PARIS          SUNNY     72  43  35 N13       30.05S
LEXINGTON      SUNNY     72  45  37 NW9       30.04S
SAVANNAH       SUNNY     73  46  38 N12       30.04F
$$

TNZ008-025-027-028-033-062-065-066-212100-
NORTH MIDDLE TENNESSEE

CITY           SKY/WX    TMP DP  RH WIND       PRES   REMARKS
NASHVILLE      MOSUNNY   73  46  38 NW9       30.03S
CLARKSVILLE    SUNNY     70  45  40 NW13      30.04S
COOKEVILLE     MOSUNNY   66  46  48 N8        30.02S
CROSSVILLE     MOSUNNY   63  42  46 N12       30.03S
$$

TNZ061-075-076-078-094-096-097-212100-
SOUTH MIDDLE TENNESSEE

CITY           SKY/WX    TMP DP  RH WIND       PRES   REMARKS
MCMINNVILLE    SUNNY     68  48  49 N7        30.03S
SHELBYVILLE    SUNNY     72  46  40 N7        30.03S
$$

TNZ017-018-042-046-047-212100-
NORTHEAST TENNESSEE

CITY           SKY/WX    TMP DP  RH WIND       PRES   REMARKS
TRI CITIES     PTSUNNY   60  41  49 NW13      29.97R
ELIZABETHTON   MOCLDY    61  39  44 W10       29.96R
$$

TNZ012-013-036-069-073-074-212100-
CENTRAL EAST TENNESSEE

CITY           SKY/WX    TMP DP  RH WIND       PRES   REMARKS
KNOXVILLE      MOSUNNY   67  44  43 W9        29.98S
OAK RIDGE      SUNNY     70  42  36 VRB7      30.00S
GATLINBURG     MOCLDY    66  43  42 N9        29.98S
MORRISTOWN     CLEAR     64  45  48 N10       29.99S
$$

TNZ083-085-099-212100-
SOUTHEAST TENNESSEE

CITY           SKY/WX    TMP DP  RH WIND       PRES   REMARKS
CHATTANOOGA    MOSUNNY   73  44  35 N13       29.99F
$$

SKY/WX REPORTED AS FAIR MEANS FEW OR NO CLOUDS BELOW
12 THOUSAND FEET.




USA.gov is the U.S. government's official web portal to all federal, state and local government web resources and services.